EW2875 Weather Reports


Display with metric or nautical units.
time (UTC)temp
F
wind
direction
speed
MPH
gust
MPH
rain 1hr
in
rain 24hr
in
rain mn
in
humidity
%
barometer
mb
20260506004505 34 163 7.0 9.0 0.00 0.03 0.00 94 1016.2
20260506003025 33 153 8.0 9.0 0.00 0.03 0.00 94 1016.1
20260506001525 33 140 6.0 8.0 0.00 0.03 0.00 94 1016.4
20260506000004 32 145 2.0 7.0 0.00 0.03 0.00 93 1016.3
20260505234504 34 0 0.0 0.0 0.00 0.03 0.00 91 1016.4
20260505233004 35 240 1.0 3.0 0.00 0.03 0.00 92 1016.4
20260505231504 35 240 1.0 2.0 0.00 0.04 0.00 92 1016.5
20260505230005 36 0 0.0 0.0 0.00 0.05 0.00 92 1016.5
20260505224504 37 292 0.0 2.0 0.00 0.05 0.05 92 1016.8
20260505223004 38 263 2.0 8.0 0.00 0.06 0.05 93 1016.8
20260505221525 37 239 1.0 3.0 0.00 0.06 0.05 93 1016.8
20260505220004 37 239 1.0 3.0 0.00 0.06 0.05 91 1016.8
20260505214525 38 239 2.0 3.0 0.01 0.06 0.05 91 1016.8
20260505213004 38 234 2.0 3.0 0.01 0.06 0.05 91 1016.8
20260505211504 38 229 2.0 5.0 0.01 0.09 0.05 91 1016.6
20260505210004 39 299 3.0 10.0 0.01 0.10 0.05 89 1016.8
20260505204504 39 307 9.0 14.0 0.00 0.09 0.04 87 1017.0
20260505203025 39 299 0.0 4.0 0.00 0.11 0.04 89 1017.0
20260505201504 40 0 0.0 0.0 0.00 0.12 0.04 88 1017.1
20260505200004 40 32 0.0 2.0 0.00 0.12 0.04 85 1017.0
20260505194504 41 31 2.0 5.0 0.00 0.12 0.04 81 1016.9
20260505193004 42 36 5.0 8.0 0.00 0.12 0.04 81 1016.8
20260505191504 42 23 4.0 10.0 0.00 0.13 0.04 79 1016.6
20260505190025 42 12 3.0 5.0 0.00 0.15 0.04 78 1016.7
20260505184504 43 14 4.0 5.0 0.00 0.15 0.04 78 1016.8
20260505183025 43 12 3.0 5.0 0.00 0.15 0.04 77 1016.7
20260505181504 43 359 3.0 7.0 0.00 0.15 0.04 77 1016.8
20260505180025 43 349 4.0 7.0 0.00 0.15 0.04 75 1016.7
20260505174504 43 351 4.0 9.0 0.00 0.15 0.04 73 1016.7
20260505173004 44 21 5.0 10.0 0.00 0.15 0.04 73 1016.7
20260505171504 44 22 11.0 18.0 0.00 0.15 0.04 73 1016.9
20260505170004 45 13 6.0 12.0 0.00 0.15 0.04 68 1016.8
20260505164504 46 359 4.0 11.0 0.00 0.15 0.04 63 1016.7
20260505163004 47 4 7.0 12.0 0.00 0.15 0.04 64 1016.7
20260505161525 47 13 6.0 11.0 0.00 0.15 0.04 67 1016.7
20260505153004 47 4 7.0 13.0 0.00 0.15 0.04 59 1016.6
20260505151504 47 360 9.0 14.0 0.00 0.15 0.04 64 1016.8
20260505124504 46 356 12.0 18.0 0.00 0.15 0.04 71 1016.4
20260505123004 45 358 13.0 21.0 0.00 0.15 0.04 74 1016.4
20260505121504 44 354 12.0 20.0 0.00 0.15 0.04 80 1016.2
20260505120005 44 357 13.0 19.0 0.00 0.15 0.04 75 1016.3
20260505114504 44 354 13.0 20.0 0.00 0.15 0.04 75 1016.2
20260505113004 44 351 13.0 18.0 0.00 0.15 0.04 77 1016.1
20260505111504 46 355 14.0 19.0 0.00 0.15 0.04 77 1016.1
20260505101504 45 357 15.0 22.0 0.00 0.15 0.04 77 1015.9
20260505100025 44 354 13.0 19.0 0.01 0.15 0.04 83 1016.0
20260505094504 42 355 12.0 18.0 0.01 0.15 0.04 82 1015.9
20260505093025 41 349 2.0 9.0 0.01 0.15 0.04 91 1015.8
20260505091504 40 340 7.0 19.0 0.01 0.15 0.04 89 1015.8
20260505090004 41 349 15.0 22.0 0.00 0.14 0.03 85 1015.5
20260505084504 42 356 13.0 19.0 0.00 0.14 0.03 85 1015.3
20260505083004 42 357 13.0 19.0 0.00 0.14 0.03 84 1015.3
20260505081504 42 357 14.0 19.0 0.00 0.14 0.03 87 1015.1
20260505080004 41 358 17.0 23.0 0.00 0.14 0.03 87 1014.8
20260505074525 41 359 14.0 20.0 0.00 0.14 0.03 89 1014.7
20260505073004 41 357 15.0 22.0 0.00 0.14 0.03 88 1014.6
20260505071525 40 358 14.0 21.0 0.00 0.14 0.03 91 1014.4
20260505070004 40 358 15.0 20.0 0.00 0.14 0.03 93 1014.5
20260505064504 40 356 15.0 20.0 0.00 0.14 0.03 95 1014.4
20260505063004 40 356 15.0 22.0 0.01 0.14 0.03 96 1014.1
20260505061504 40 3 14.0 20.0 0.01 0.14 0.03 96 1014.0
20260505060004 40 4 16.0 24.0 0.01 0.14 0.03 96 1013.8
20260505054525 40 3 16.0 24.0 0.01 0.14 0.03 96 1013.5
20260505053004 41 359 16.0 22.0 0.00 0.13 0.02 96 1013.4
20260505051504 41 357 15.0 20.0 0.00 0.13 0.02 96 1013.1
20260505041525 42 285 7.0 12.0 0.00 0.13 0.02 97 1012.1
20260505040004 41 291 6.0 12.0 0.00 0.13 0.02 97 1012.1
20260505034504 41 289 8.0 12.0 0.00 0.13 0.02 96 1012.2
20260505033025 41 287 7.0 13.0 0.00 0.13 0.02 96 1012.1
20260505031525 42 286 6.0 11.0 0.00 0.13 0.02 96 1012.1
20260505030004 42 285 4.0 10.0 0.00 0.13 0.02 96 1012.1
20260505024525 42 287 4.0 10.0 0.00 0.13 0.02 97 1012.1
20260505023004 43 287 11.0 15.0 0.00 0.13 0.02 97 1012.0
20260505021525 42 284 7.0 14.0 0.00 0.13 0.02 97 1012.0
20260505020004 43 282 5.0 12.0 0.00 0.13 0.02 97 1012.0
20260505014504 43 283 6.0 12.0 0.00 0.13 0.02 97 1012.0
20260505013004 43 286 8.0 15.0 0.00 0.13 0.02 97 1011.8
20260505011504 43 287 9.0 14.0 0.00 0.13 0.02 97 1011.8
20260505010025 44 288 11.0 16.0 0.00 0.13 0.02 96 1011.8